• Join FlightAware (Why Join?)
  • Login
  • US Flag 
05:10PM EDT


 

Airport Tracker/Info


-or-


 

Live Flight TrackerFlight Track Log ✈ N575EW ✈ 08-Sep-2013 ✈ KOPF - KGNV

Flight Track Log - Related Links

Times and Time Zones

All times are in EDT time to prevent confusion due to time zone crossing. See the N575EW flight status page for this flight to view local times or setup timezone preferences in your user account.

Time Position Orientation Groundspeed Altitude Reporting Facility
EDT Latitude Longitude Course Direction KTS MPH feet Rate Location/Type
03:20PM 25.9089 -80.2706 76° East 127 146 400  Level Miami Center
03:20PM 25.9114 -80.2592 76° East 143 165 800 2,400 Climbing Miami Center
03:21PM 25.9186 -80.2133 80° East 162 186 3,300 1,860 Climbing Miami Center
03:22PM 25.9292 -80.2042 38° Northeast 182 209 3,300 1,440 Level Miami Center
03:22PM 25.9622 -80.2283 327° Northwest 224 258 4,800 1,680 Climbing Miami Center
03:23PM 25.9703 -80.2378 313° West 231 266 5,000 2,340 Climbing Miami Center
03:23PM 25.9772 -80.3028 277° West 225 259 7,200 2,400 Climbing Miami Center
03:24PM 25.9853 -80.3144 308° West 221 254 7,500 1,920 Climbing Miami Center
03:24PM 25.9858 -80.3744 271° West 217 250 9,400 1,920 Climbing Miami Center
03:25PM 25.9897 -80.3839 295° West 221 254 9,400 1,080 Level Miami Center
03:25PM 25.9925 -80.4442 273° West 268 308 10,400 1,140 Climbing Miami Center
03:26PM 25.9964 -80.4558 290° West 269 310 10,600 1,500 Climbing Miami Center
03:27PM 26.0069 -80.5369 278° West 279 321 12,300 1,920 Climbing Miami Center
03:28PM 26.0300 -80.6117 289° West 269 310 14,500 2,040 Climbing Miami Center
03:29PM 26.0597 -80.6772 297° West 256 295 16,400 1,800 Climbing Miami Center
03:30PM 26.0872 -80.7453 294° West 245 282 18,100 1,200 Climbing Miami Center
03:31PM 26.1167 -80.8156 295° West 240 276 18,900 420 Climbing Miami Center
03:32PM 26.1797 -80.8756 320° Northwest 256 295 19,000 180 Climbing Miami Center
03:33PM 26.2553 -80.9339 325° Northwest 309 356 19,300 480 Climbing Miami Center
03:34PM 26.3372 -80.9992 324° Northwest 334 384 20,000 300 Climbing Miami Center
03:35PM 26.4108 -81.0528 327° Northwest 339 390 20,000 600 Level Miami Center
03:36PM 26.4883 -81.1158 324° Northwest 344 396 21,200 1,260 Climbing Miami Center
03:37PM 26.5594 -81.1764 323° Northwest 316 364 22,600 1,140 Climbing Miami Center
03:38PM 26.6269 -81.2300 325° Northwest 305 351 23,500 660 Climbing Miami Center
03:39PM 26.7006 -81.2817 328° Northwest 305 351 24,000 240 Climbing Miami Center
03:40PM 26.7811 -81.3056 345° North 318 366 24,000  Level Miami Center
03:41PM 26.8722 -81.3344 344° North 335 386 24,000  Level Miami Center
03:42PM 26.9775 -81.3689 344° North 346 398 24,000  Level Miami Center
03:43PM 27.0725 -81.4006 343° North 351 404 24,000  Level Miami Center
03:44PM 27.1675 -81.4322 343° North 358 412 24,000  Level Miami Center
03:45PM 27.2544 -81.4592 345° North 358 412 24,000  Level Miami Center
03:46PM 27.3494 -81.4908 344° North 353 406 24,000  Level Miami Center
03:47PM 27.4503 -81.5394 337° Northwest 358 412 24,000  Level Miami Center
03:48PM 27.5450 -81.5714 343° North 358 412 24,000  Level Miami Center
03:49PM 27.6400 -81.6033 343° North 358 412 24,000  Level Miami Center
03:50PM 27.7269 -81.6281 346° North 358 412 24,000  Level Miami Center
03:51PM 27.8322 -81.6631 344° North 353 406 24,000  Level Miami Center
03:52PM 27.9900 -81.7128 344° North 349 402 24,000  Level Jacksonville Center
03:53PM 28.0842 -81.7444 343° North 349 402 24,000  Level Jacksonville Center
03:54PM 28.1806 -81.7742 345° North 349 402 24,000 -120 Level Jacksonville Center
03:55PM 28.2767 -81.8036 345° North 354 407 23,800 -480 Descending Jacksonville Center
03:56PM 28.3753 -81.8381 343° North 359 413 23,100 -780 Descending Jacksonville Center
03:57PM 28.4756 -81.8725 343° North 365 420 22,300 -780 Descending Jacksonville Center
03:58PM 28.5739 -81.9022 345° North 365 420 21,600 -720 Descending Jacksonville Center
03:59PM 28.6703 -81.9319 345° North 359 413 20,900 -840 Descending Jacksonville Center
04:00PM 28.7622 -81.9689 341° North 359 413 20,000 -1,260 Descending Jacksonville Center
04:01PM 28.8483 -82.0272 329° Northwest 359 413 18,400 -1,260 Descending Jacksonville Center
04:02PM 28.9383 -82.0694 338° Northwest 354 407 17,500 -480 Descending Jacksonville Center
04:03PM 29.0281 -82.0875 350° North 336 387 17,500  Level Jacksonville Center
04:04PM 29.1158 -82.1131 346° North 326 375 17,500  Level Jacksonville Center
04:05PM 29.2017 -82.1336 348° North 320 368 17,500 -60 Level Jacksonville Center
04:06PM 29.2581 -82.1547 342° North 312 359 17,400 -720 Descending Jacksonville Center
04:06PM 29.2875 -82.1569 356° North 315 362 16,800 -3,300 Descending Jacksonville Center
04:07PM 29.3144 -82.1686 339° North 318 366 15,400 -3,720 Descending Jacksonville Center
04:07PM 29.3731 -82.1753 354° North 315 362 13,100 -3,840 Descending Jacksonville Center
04:08PM 29.4044 -82.1847 345° North 310 357 11,500 -3,900 Descending Jacksonville Center
04:08PM 29.4567 -82.1914 354° North 315 362 9,200 -3,780 Descending Jacksonville Center
04:09PM 29.4839 -82.2008 343° North 293 337 7,700 -3,840 Descending Jacksonville Center
04:09PM 29.5300 -82.2314 330° Northwest 302 348 5,400 -3,480 Descending Jacksonville Center
04:10PM 29.5489 -82.2575 310° West 284 327 4,200 -2,640 Descending Jacksonville Center
04:10PM 29.5844 -82.2931 319° Northwest 280 322 2,800 -2,220 Descending Jacksonville Center
04:11PM 29.6014 -82.3097 319° Northwest 247 284 2,000 -1,440 Descending Jacksonville Center
04:11PM 29.6411 -82.3239 343° North 257 296 1,400 -960 Descending Jacksonville Center
04:12PM 29.6639 -82.3142 20° North 176 203 1,000 -420 Descending Jacksonville Center
04:12PM 29.6911 -82.3331 329° Northwest 210 242 1,000 5,640 Level Jacksonville Center
04:13PM 29.7475 -82.3567 340° North 210 242 9,500 4,200 Climbing Jacksonville Center
04:14PM 29.8061 -82.3803 341° North 210 242 9,500  Level Jacksonville Center
04:15PM 29.8625 -82.4039 340° North 210 242 9,500  Level Jacksonville Center
04:17PM 29.7723 -82.3347 146° Southeast  Level FlightAware Approximate
04:24PM 29.6901 -82.2718 145° Southeast  Level Estimated
04:25PM 29.6901 -82.2718 145° Southeast  Level Estimated
04:26PM 29.6901 -82.2718 145° Southeast  Level Estimated
04:27PM 29.6901 -82.2718 145° Southeast  Level Estimated
04:28PM 29.6901 -82.2718 145° Southeast  Level Estimated
04:29PM 29.6901 -82.2718 145° Southeast  Level Estimated
04:30PM 29.6901 -82.2718 145° Southeast  Level Estimated
04:31PM 29.6901 -82.2718 145° Southeast  Level Estimated
04:32PM 29.6901 -82.2718 145° Southeast  Level Estimated
04:33PM 29.6901 -82.2718 145° Southeast  Level Estimated